Flag for Germany Weather past 2 weeks in Ravensburg, Baden-Württemberg, Germany

Now
36 °F

Mostly cloudy.


Feels Like: 28 °F
Forecast: 26 / 35 °F
Wind: 10 mph from Southwest

Location: Friedrichshafen Airport

Current Time: Jan 31, 2015 at 11:42:51 PM

Latest Report: Jan 31, 2015 at 10:50 PM


Visibility: N/A

Pressure: 29.18 "Hg

Humidity: 70%

Dew point: 27 °F

Location of RavensburgLocation

Historic Weather in Ravensburg — Graph

°F

Ravensburg temperature yesterday

Maximum temperature yesterday: 37 °F (at 1:20 AM)
Minimum temperature yesterday: 32 °F (at 12:50 PM)
Average temperature yesterday: 34 °F

Past Weeks' High & Low Weather Summary

 TemperatureHumidityPressure
High41 °F (Jan 16, 11:50 PM)93% (Jan 16, 10:50 PM)30.39 "Hg (Jan 16, 10:50 PM)
Low27 °F (Jan 26, 8:20 AM)52% (Jan 31, 1:20 PM)28.80 "Hg (Jan 30, 1:20 AM)
Average33 °F82%29.85 "Hg
* Reported Jan 16 10:20 PM — Jan 31 10:20 PM, Ravensburg, Weather by CustomWeather, © 2014

Note: Actual official high and low records may vary slightly from our data, if they occured in-between our weather recording intervals... More about our weather records

Advertising

Ravensburg weather history for previous 24 hours

 ConditionsComfort  
Time TempWeatherWind HumidityBarometerVisibility
10:20 PM
Jan 31
36 °FMostly cloudy.12 mph70%29.18 "HgN/A
9:50 PM36 °FMostly cloudy.9 mph75%29.18 "HgN/A
9:20 PM34 °FMostly cloudy.12 mph81%29.18 "HgN/A
8:50 PM34 °FMostly cloudy.10 mph81%29.18 "HgN/A
8:20 PM34 °FMostly cloudy.12 mph81%29.18 "HgN/A
7:55 PM34 °FOvercast.10 mph81%29.18 "HgN/A
7:50 PM34 °FMostly cloudy.12 mph81%29.15 "HgN/A
7:20 PM34 °FMostly cloudy.13 mph81%29.15 "HgN/A
6:50 PM34 °FLight snow. Mostly cloudy.13 mph81%29.15 "HgN/A
5:50 PM36 °FMostly cloudy.6 mph65%29.12 "HgN/A
5:20 PM37 °FMostly cloudy.6 mph56%29.12 "HgN/A
4:50 PM37 °FMostly cloudy.10 mph56%29.09 "HgN/A
4:20 PM37 °FSunny.9 mph56%29.09 "Hg10 mi
3:50 PM37 °FPartly sunny.10 mph56%29.09 "HgN/A
3:20 PM37 °FBroken clouds.7 mph56%29.09 "HgN/A
2:50 PM37 °FBroken clouds.7 mph56%29.09 "HgN/A
2:20 PM37 °FBroken clouds.7 mph52%29.09 "HgN/A
1:50 PM37 °FScattered clouds.6 mph56%29.09 "HgN/A
1:20 PM37 °FPartly sunny.8 mph52%29.09 "HgN/A
12:50 PM37 °FScattered clouds.9 mph56%29.09 "HgN/A
12:20 PM36 °FSunny.10 mph60%29.09 "Hg10 mi
11:50 AM37 °FChilly.8 mph56%29.09 "HgN/A
11:20 AM36 °FSunny.12 mph65%29.09 "Hg10 mi
10:50 AM36 °FPassing clouds.13 mph65%29.09 "HgN/A
10:20 AM36 °FPassing clouds.9 mph65%29.09 "HgN/A
9:50 AM34 °FPassing clouds.10 mph70%29.09 "HgN/A
9:20 AM34 °FScattered clouds.12 mph70%29.06 "HgN/A
8:50 AM34 °FScattered clouds.8 mph75%29.09 "HgN/A
8:20 AM34 °FMore clouds than sun.10 mph70%29.06 "HgN/A
7:50 AM34 °FMostly cloudy.12 mph75%29.06 "HgN/A
7:20 AM34 °FMostly cloudy.13 mph75%29.06 "HgN/A
6:50 AM34 °FPassing clouds.10 mph70%29.06 "HgN/A
6:20 AM34 °FMostly cloudy.15 mph70%29.06 "HgN/A
5:50 AM34 °FMostly cloudy.14 mph75%29.06 "HgN/A
5:20 AM34 °FMostly cloudy.12 mph75%29.03 "HgN/A
4:50 AM34 °FSprinkles. Mostly cloudy.15 mph75%29.03 "HgN/A
3:55 AM34 °FOvercast.10 mph75%29.03 "HgN/A
3:50 AM34 °FOvercast.14 mph75%29.03 "HgN/A
3:20 AM34 °FOvercast.10 mph75%29.03 "HgN/A
2:50 AM34 °FSprinkles. Overcast.10 mph75%29.00 "HgN/A
2:20 AM34 °FLight rain. Mostly cloudy.6 mph75%29.00 "HgN/A
1:50 AM34 °FLight snow. Mostly cloudy.8 mph81%29.00 "HgN/A
1:20 AM34 °FSprinkles. Mostly cloudy.8 mph81%29.00 "HgN/A
12:50 AM34 °FSprinkles. Mostly cloudy.12 mph81%29.00 "HgN/A
12:20 AM34 °FSprinkles. Overcast.16 mph75%28.97 "HgN/A
11:50 PM
Jan 30
34 °FSprinkles. Mostly cloudy.14 mph81%28.97 "HgN/A
11:20 PM32 °FSprinkles. Mostly cloudy.12 mph87%28.97 "HgN/A
Weather by CustomWeather, © 2014

See weather overviewHow to use our weather pages